Simultaneous Nadir Overpasses (SNOs) Predictions

Prediction of SNOs between GOES-16 and FY3D Satellite Orbit:

Table of predicted SNOs for the next 14.0 days since TLE Epoch: 2/1/2025
Index Date Time (GOES-16) GOES-16 Lat,Lon FY3D Lat,Lon Distance(km) Time Diff (sec)
1 02/01/2025 19:40:28 0.01, -75.19 0.73, -71.94 369.79 80
2 02/03/2025 08:02:14 -0.01, -75.23 0.44, -77.16 221.40 80
3 02/04/2025 07:40:50 -0.01, -75.24 -0.63, -72.62 299.20 80
4 02/05/2025 20:02:45 0.02, -75.25 -0.56, -77.88 299.12 80
5 02/06/2025 19:46:40 0.02, -75.27 0.45, -73.33 221.88 80
6 02/08/2025 08:08:26 -0.02, -75.32 0.72, -78.55 368.44 80
7 02/09/2025 07:47:02 -0.03, -75.34 -0.36, -74.01 152.61 80
8 02/10/2025 20:08:56 0.03, -75.36 -0.86, -79.26 444.97 80
9 02/11/2025 19:52:50 0.03, -75.38 0.16, -74.70 77.08 80
10 02/14/2025 07:53:11 -0.04, -75.48 -0.03, -75.38 11.80 80
